Theta_e
283 283 285 285 285 284 283 282 282 283 283 283 283 285 287 285 283 282 286 283 283 287 290 288 288 289 290 290 289 289 291 292 290 290 292 293 292 292 291 292 292 293 294 295 295 295 295 295 295 296 296 297 296 295 293 293 290 291 290 290 291 291 292 292 294 296 296 295 293 292 292 291 291 291 291 290 289 289 289 290 290 290 290 290 290 289 289
283 284 283 284 285 284 283 282 283 284 283 284 285 285 286 284 283 284 285 282 284 287 290 290 289 289 291 293 292 291 291 291 291 290 292 292 292 291 292 292 293 293 293 293 293 293 293 294 294 295 296 297 297 297 297 296 292 291 287 289 290 291 291 292 294 294 294 293 293 292 290 291 292 291 290 289 289 289 289 289 289 289 288 288 289 289 288
282 284 284 283 283 284 284 284 284 285 286 285 285 284 284 284 283 285 286 285 286 292 291 292 294 293 293 292 291 293 292 291 290 291 291 291 291 291 292 292 292 292 292 292 292 292 293 293 294 295 296 296 296 296 296 296 295 293 288 289 289 290 291 292 293 293 292 293 292 291 291 291 290 290 289 288 288 288 288 288 288 287 287 288 288 288 288
283 285 285 285 285 284 285 286 287 287 286 283 283 283 284 284 285 285 283 283 286 292 290 293 292 291 291 292 292 292 292 292 290 289 288 289 290 291 292 292 292 292 292 292 293 293 293 293 293 294 295 296 295 295 296 296 296 292 289 288 290 290 291 291 291 292 291 291 290 291 290 290 290 288 287 287 288 288 288 287 287 286 286 287 287 287 287
283 287 285 285 284 284 283 284 287 289 288 288 288 288 287 288 289 285 283 285 291 293 290 290 292 292 290 290 290 292 291 290 290 289 289 290 291 291 291 291 291 291 292 293 293 293 293 294 294 295 294 293 294 295 295 296 294 293 292 290 290 291 291 291 291 290 290 290 290 290 290 289 289 288 287 288 288 288 288 288 285 286 287 286 286 286 286
283 281 282 284 283 278 280 291 292 292 290 290 287 288 290 291 290 288 291 291 292 291 292 291 291 292 291 290 291 291 291 290 289 289 288 289 289 290 290 290 290 291 292 292 292 292 292 292 293 293 292 292 293 293 293 293 293 294 293 293 291 291 291 290 290 289 289 289 289 289 289 288 287 288 287 288 288 288 287 286 286 286 286 286 286 285 286
281 277 282 281 276 279 290 292 292 294 293 292 290 291 292 292 292 291 292 293 293 294 294 295 292 289 289 288 289 290 289 290 289 288 288 288 288 289 289 291 292 292 292 292 292 291 292 291 290 290 291 292 292 292 292 292 293 293 293 292 292 291 290 290 288 288 288 288 288 289 288 287 287 287 288 288 287 287 287 286 286 286 285 285 285 285 285
282 279 282 276 277 286 286 286 288 286 289 289 287 286 288 290 291 292 292 293 295 295 294 289 286 286 285 285 285 288 288 289 288 287 289 290 288 288 290 289 291 291 291 291 291 291 291 290 290 290 290 290 289 290 290 290 291 291 290 290 291 291 290 289 289 288 287 288 288 287 287 286 287 287 287 287 287 285 285 284 285 284 284 284 284 284 284
281 282 281 281 285 284 285 285 284 286 284 285 286 283 286 289 291 292 292 293 294 291 285 284 283 283 283 285 287 285 287 288 287 290 288 289 289 289 289 289 290 291 290 290 290 289 288 288 288 289 289 289 288 288 288 290 290 289 289 289 290 290 289 289 288 287 286 287 287 287 286 286 287 287 287 286 285 284 284 283 283 283 284 284 284 284 284
286 282 279 279 280 276 282 285 287 287 287 289 289 288 284 285 284 286 290 290 287 286 283 282 283 283 287 284 285 288 288 288 289 287 287 286 287 287 288 289 288 288 288 288 288 287 287 287 287 288 287 287 286 286 287 288 288 289 289 289 290 289 289 289 287 286 285 286 287 287 286 286 287 286 285 282 284 283 284 283 282 282 282 282 282 283 284
283 281 278 279 277 280 286 284 286 285 285 290 287 286 282 284 282 282 284 284 285 284 286 284 282 283 281 282 282 284 287 287 287 287 287 286 287 287 287 287 288 288 288 287 287 286 287 287 289 287 286 285 284 285 286 287 287 287 288 289 289 289 289 288 287 285 285 285 286 286 286 286 285 285 284 284 281 280 281 280 281 279 280 281 279 280 282
282 281 280 277 282 280 284 284 284 286 285 290 288 277 277 285 282 281 282 283 284 283 282 283 280 280 279 280 284 286 287 286 286 285 287 288 288 288 288 287 286 287 286 285 286 286 286 288 287 286 285 284 284 285 286 286 286 286 287 288 288 287 286 286 285 284 283 284 284 285 285 284 283 283 280 278 278 279 277 279 279 279 279 281 281 281 282
282 283 281 282 282 285 282 284 286 284 287 287 278 276 282 284 283 281 283 283 283 281 282 282 282 282 284 286 286 285 286 286 287 287 286 286 286 287 288 288 288 285 284 285 286 286 286 287 285 284 284 283 284 284 284 284 285 286 287 286 285 285 285 284 283 283 282 281 283 282 282 282 280 277 278 279 278 278 278 278 277 277 278 278 280 281 282
281 281 279 279 282 282 284 282 284 284 285 278 277 284 283 284 283 281 282 282 280 282 282 282 284 284 284 283 283 284 285 285 286 286 286 287 287 287 287 287 286 286 286 285 285 286 284 284 283 282 282 282 284 284 283 284 285 285 285 284 284 283 283 282 281 279 278 278 278 279 277 277 276 276 275 277 278 278 278 278 278 278 277 279 280 280 281
283 280 278 278 273 283 285 286 283 285 281 281 285 282 282 282 283 282 281 281 281 282 282 282 283 283 283 284 284 284 284 284 285 286 286 286 287 287 288 288 289 287 286 286 286 286 287 286 283 281 278 280 282 283 283 284 285 283 283 282 281 281 280 279 277 275 274 276 276 276 276 276 276 275 275 276 276 278 278 278 279 279 279 280 280 279 279
278 279 276 277 284 286 285 286 282 282 281 284 283 286 283 281 281 282 282 282 282 282 284 284 283 282 283 283 284 284 285 284 285 285 286 286 286 287 287 286 287 286 286 287 286 286 286 286 285 282 280 281 282 282 283 284 283 282 280 280 278 278 277 275 274 274 274 274 275 275 274 274 275 275 275 275 276 278 279 279 279 279 279 279 279 278 278
282 280 282 284 284 284 285 281 282 285 285 283 283 284 285 284 283 282 283 283 283 283 283 283 283 283 284 283 283 283 285 285 285 286 286 286 286 286 286 286 286 285 285 285 285 285 286 286 286 284 278 280 281 281 283 281 281 281 279 278 277 277 275 274 273 272 273 273 274 274 274 276 276 275 274 274 276 275 278 279 279 279 279 279 279 278 278
282 281 282 282 281 283 285 284 283 283 284 283 283 285 286 287 286 285 286 287 287 286 285 286 286 286 284 284 284 284 284 285 285 285 286 286 286 286 286 286 286 286 285 284 284 284 285 285 284 284 282 278 280 282 283 281 280 279 277 276 276 275 272 273 272 272 273 273 273 273 274 274 275 276 276 276 276 276 277 278 279 279 278 278 278 278 277
283 279 282 282 284 282 281 282 281 282 285 286 287 287 287 286 285 284 282 284 284 285 285 285 284 283 283 283 283 284 284 284 284 285 285 285 285 285 285 286 285 285 284 284 284 284 284 285 284 283 281 280 280 280 280 280 278 276 275 275 276 274 272 271 271 272 272 272 273 272 273 273 273 274 275 276 277 278 279 279 279 279 278 278 277 277 278
281 278 281 282 282 281 281 281 284 285 285 286 283 283 282 282 282 283 282 282 283 283 283 284 282 283 282 281 282 283 283 284 284 285 285 285 285 286 286 286 286 285 285 284 283 283 283 284 283 281 280 279 279 278 277 277 275 274 276 276 276 274 271 271 272 271 272 276 274 272 272 272 274 273 274 276 278 278 279 279 279 278 278 278 277 277 278
277 278 279 278 280 281 280 280 280 281 282 281 281 281 281 282 282 282 282 282 282 281 282 281 281 281 282 281 282 282 282 283 283 284 284 284 284 284 284 284 284 284 283 282 282 282 282 283 281 279 278 278 277 276 276 275 273 274 276 276 275 272 271 272 272 275 273 273 273 273 273 273 273 275 277 277 278 277 278 279 281 280 279 278 278 279 279
274 279 279 277 277 276 280 279 280 279 280 281 281 280 281 280 279 279 279 280 280 280 281 282 281 279 281 281 281 281 281 281 282 282 282 282 282 282 283 283 282 282 281 281 281 281 281 281 280 279 278 277 276 275 274 273 272 275 276 275 273 273 272 272 271 274 274 273 273 274 274 273 274 276 282 282 280 279 279 282 282 282 282 279 279 279 279
275 279 278 280 281 279 279 280 278 278 279 280 280 279 279 277 277 277 278 278 278 278 278 279 279 278 279 279 280 280 280 280 281 281 281 280 281 281 281 281 281 281 281 281 280 280 281 281 280 279 277 276 275 274 273 273 272 274 274 275 275 274 275 274 275 274 273 273 274 274 274 275 276 277 278 281 283 283 282 282 282 282 282 282 282 281 280
278 278 280 278 279 280 277 277 276 275 277 279 277 276 276 275 275 275 276 277 277 277 277 276 276 276 276 277 277 276 277 277 278 278 279 279 279 279 280 280 280 280 280 280 280 280 280 279 278 278 277 276 274 273 271 272 273 274 275 275 276 276 275 276 277 277 275 275 276 276 276 277 278 278 279 279 280 282 283 282 282 282 282 282 282 282 282
280 279 278 278 278 278 277 275 274 275 275 277 275 273 273 272 273 274 274 274 275 276 274 273 274 275 274 273 273 273 274 274 275 276 276 277 278 279 279 278 278 279 279 280 280 280 279 278 278 277 276 276 274 271 271 272 273 276 277 278 277 276 276 276 277 278 278 278 278 278 278 278 278 279 279 279 278 278 281 283 283 282 283 283 282 282 282
276 275 276 277 277 277 276 275 274 273 273 273 272 272 271 272 272 272 272 273 273 273 271 271 271 271 270 269 270 271 271 271 272 273 273 274 275 275 275 276 277 278 278 278 278 278 278 278 277 276 276 276 274 272 270 272 274 277 279 279 280 280 279 278 278 278 278 278 278 278 278 278 278 278 278 279 279 279 278 279 280 282 283 283 282 282 282
271 272 277 278 277 274 274 276 275 272 272 271 270 270 269 269 270 269 270 270 269 269 268 269 268 267 266 267 268 268 268 269 269 270 271 271 270 271 273 273 274 274 275 275 276 277 277 277 276 275 275 275 272 268 268 270 273 277 280 281 281 279 278 278 279 279 278 278 277 277 277 277 277 277 277 277 278 278 278 277 277 278 278 280 282 282 281
270 269 273 279 277 276 272 271 271 272 270 268 267 267 267 267 265 264 264 265 265 264 265 265 264 263 263 264 265 264 266 266 266 267 267 267 268 269 269 269 271 272 273 274 274 275 275 275 274 274 274 274 269 267 268 270 273 276 279 280 280 280 279 279 279 279 278 278 278 277 277 277 277 277 277 277 276 276 276 277 277 277 277 278 280 282 282
267 267 267 269 270 270 270 270 270 269 268 266 266 265 264 263 263 263 263 264 264 263 263 263 262 262 262 262 263 263 263 263 263 263 264 265 266 266 267 268 269 271 272 272 273 274 274 273 273 273 274 271 267 266 268 271 273 276 278 280 280 279 279 279 279 278 278 278 278 278 278 276 276 276 276 276 276 276 276 276 276 276 277 277 278 279 281
264 264 265 267 268 269 269 267 267 267 264 264 263 262 262 262 261 262 262 262 262 261 262 262 260 260 261 260 261 261 261 260 261 262 262 263 264 265 266 268 270 271 272 272 273 272 272 272 273 273 274 269 266 266 267 270 272 276 278 279 279 279 279 279 278 278 277 277 277 278 277 276 276 276 275 275 275 275 275 275 275 275 276 277 277 277 277
262 263 263 266 265 266 266 266 264 263 263 261 262 261 261 260 259 260 261 261 260 260 260 259 258 258 258 259 259 259 260 259 260 260 261 262 263 265 267 269 270 270 271 271 272 271 270 270 271 272 271 267 267 268 268 268 271 274 277 278 278 279 279 279 279 278 278 277 277 277 276 276 276 275 274 274 274 274 275 275 275 275 275 275 275 275 276
263 261 262 263 263 263 262 262 262 261 261 260 259 259 260 257 255 257 257 258 257 258 257 257 257 257 258 258 258 258 258 258 258 259 260 262 264 267 269 269 269 270 270 270 270 270 268 266 267 268 265 265 267 267 268 269 270 273 275 275 277 277 278 279 278 278 277 276 276 276 275 275 275 274 274 273 274 274 274 274 274 274 274 274 273 272 272
265 264 264 260 259 260 260 260 259 258 258 257 259 258 258 258 257 257 257 257 257 257 257 256 257 257 257 257 256 256 256 257 258 259 261 263 265 265 265 266 267 269 269 269 268 267 266 265 265 266 265 266 266 267 267 268 269 271 274 276 277 277 275 278 278 278 276 275 275 275 275 275 275 274 273 273 273 273 273 273 273 273 272 271 270 270 272
268 269 264 259 260 262 262 258 256 255 257 258 257 256 256 256 255 256 255 256 256 255 256 256 256 256 256 255 255 255 256 257 257 260 261 261 261 262 263 265 267 268 268 267 267 266 265 265 265 264 264 265 265 266 267 268 269 270 272 274 276 276 276 276 276 276 275 274 275 274 274 273 274 274 273 272 272 273 272 272 272 271 270 269 269 270 274
257 257 257 257 257 256 257 256 255 255 255 255 254 253 254 254 254 254 256 256 255 255 256 256 255 255 255 254 254 255 256 257 258 258 258 259 259 261 264 265 266 266 267 268 268 266 264 263 263 263 263 264 264 266 267 267 268 270 272 273 274 275 276 275 275 275 275 275 275 274 274 273 273 270 271 272 272 271 271 271 270 269 268 268 269 270 272
254 254 254 254 253 252 252 252 253 252 252 252 252 252 252 252 253 253 253 254 255 256 255 255 255 254 254 254 254 254 255 256 256 257 257 258 260 262 264 263 264 264 265 267 265 260 261 262 263 263 263 263 264 265 266 266 267 268 270 272 272 272 273 273 274 273 273 273 273 273 273 270 269 270 270 270 270 271 271 270 269 268 268 269 269 269 267
253 253 253 253 253 251 250 250 251 250 249 250 251 251 251 251 252 252 253 253 254 254 254 254 253 253 252 253 254 254 255 256 256 257 258 260 261 261 261 262 263 264 265 265 265 259 261 262 263 263 263 263 264 264 265 264 265 268 270 271 272 272 272 272 272 272 271 271 270 269 267 268 269 268 268 270 270 270 269 269 267 267 268 268 267 266 265
252 252 251 251 250 250 249 249 249 250 249 249 250 251 251 251 251 252 252 253 253 254 254 254 253 253 253 254 254 254 254 255 256 257 259 260 260 260 260 261 262 263 261 262 261 259 260 261 262 262 262 263 263 264 264 264 264 265 269 270 271 270 270 270 270 269 268 269 267 268 268 268 268 267 267 268 268 268 267 267 266 266 266 267 266 265 264
252 252 251 251 250 249 249 249 249 248 249 249 249 249 251 252 252 251 251 252 253 253 253 253 253 253 253 253 253 254 255 256 257 258 259 259 260 259 258 260 262 261 258 259 259 259 260 261 261 261 262 262 263 263 264 264 264 266 269 269 269 269 269 268 268 267 266 266 267 267 267 267 266 266 266 266 266 265 264 265 265 264 265 265 265 264 263
251 251 250 250 249 249 250 249 248 249 249 249 248 249 251 252 251 250 251 251 252 253 252 252 252 252 252 253 253 254 255 256 257 258 259 258 258 258 259 261 260 257 259 259 259 259 260 261 261 261 261 262 262 263 263 263 264 266 267 267 267 267 267 266 266 266 266 266 265 263 264 264 264 263 263 262 262 262 262 263 263 263 263 263 262 262 262
250 251 250 250 250 250 249 248 249 249 249 249 248 249 250 251 251 250 252 252 252 252 252 252 252 252 253 253 253 254 255 256 258 258 258 257 256 256 256 256 260 258 258 259 259 259 260 260 260 260 261 262 262 262 262 263 265 266 266 266 266 266 266 266 266 265 265 264 264 263 262 262 261 262 261 262 261 261 261 261 261 261 262 261 260 260 259
249 250 249 249 249 249 249 249 249 250 249 249 249 250 250 250 251 250 252 253 252 252 252 253 254 254 254 254 254 254 255 256 256 256 256 256 255 255 254 255 258 258 259 259 259 259 259 260 260 260 260 261 262 261 261 263 264 264 265 264 264 264 264 264 263 263 263 263 262 262 261 261 261 261 261 260 261 260 259 259 259 259 259 259 259 259 259
248 248 249 249 248 249 247 248 248 248 248 250 249 248 249 249 250 249 249 251 251 252 252 252 253 254 253 252 253 253 253 255 255 255 255 256 258 257 256 255 257 258 259 258 259 259 259 260 260 260 260 260 261 261 261 263 263 263 263 262 262 262 262 262 262 262 262 262 262 261 261 261 260 260 260 260 260 259 259 259 259 258 258 258 258 258 258
249 247 246 247 246 246 248 247 248 247 246 249 250 248 248 248 249 249 250 250 250 252 252 252 252 252 252 252 252 252 253 254 253 254 253 254 257 258 258 257 257 258 258 258 259 259 259 260 260 260 260 260 260 261 262 262 262 262 262 261 261 262 261 261 261 261 261 261 261 261 260 260 260 260 259 259 258 258 258 258 258 258 258 258 258 258 257
245 245 245 244 245 246 245 244 247 248 249 249 249 248 248 247 248 248 248 249 249 251 252 251 251 251 251 251 252 252 253 254 254 254 253 253 253 254 258 257 258 258 258 258 259 259 259 259 260 260 260 261 261 261 262 261 261 261 261 260 260 260 260 260 260 260 260 260 260 260 260 259 259 259 259 259 258 258 258 258 258 258 258 257 257 257 256
244 243 245 249 245 244 244 245 247 247 247 249 248 249 250 248 247 248 247 248 248 250 251 251 251 251 251 251 251 252 253 254 254 254 254 254 254 255 257 258 258 258 258 258 258 258 259 259 260 260 260 261 260 261 261 261 261 260 260 260 259 259 259 259 259 259 259 259 259 259 259 259 259 259 259 259 259 258 258 257 257 258 258 257 257 256 256
244 244 243 243 244 244 244 245 248 247 247 247 246 246 248 248 248 247 247 248 247 247 247 249 250 250 251 251 251 252 252 253 254 254 254 255 257 258 258 258 258 258 258 258 258 257 258 258 259 259 260 260 260 260 260 260 260 260 259 259 259 259 258 258 258 258 258 258 258 258 258 258 258 258 258 258 258 258 257 257 257 256 256 255 254 254 254
244 244 244 243 243 243 243 243 244 245 244 244 244 245 246 247 246 245 247 248 248 247 247 246 248 248 250 250 252 253 253 253 251 252 256 256 256 257 257 257 257 258 258 257 257 257 258 258 258 259 259 259 259 258 258 258 258 258 258 258 259 259 259 259 258 258 258 258 258 258 258 258 258 258 257 257 257 257 257 256 256 255 255 254 253 253 253
243 243 244 243 243 243 244 245 244 246 244 244 244 245 246 247 244 245 247 247 246 248 247 246 246 247 248 251 251 251 252 254 252 251 255 255 255 255 256 256 257 257 257 256 256 256 257 257 257 258 258 257 257 257 257 257 257 257 257 257 257 257 257 257 258 258 258 258 257 257 257 257 257 257 256 256 256 256 255 255 255 254 253 252 252 252 252
243 243 244 243 243 244 242 242 243 242 242 245 245 245 246 245 244 246 247 246 247 249 247 246 246 247 249 249 249 250 251 252 253 254 254 254 255 255 255 255 256 256 256 255 255 255 255 256 256 256 256 256 256 256 256 256 256 256 257 257 257 257 257 257 257 257 257 257 257 256 256 256 256 256 255 255 255 254 254 253 253 254 254 254 252 252 252
244 244 243 245 244 244 241 242 243 243 242 244 243 245 247 245 245 247 246 247 245 247 247 247 246 246 248 249 249 250 250 251 252 254 254 253 254 255 255 255 255 255 255 255 254 254 254 254 254 255 254 255 255 255 255 255 255 255 255 255 256 256 256 256 256 256 256 255 255 255 255 255 255 254 254 253 253 253 252 252 252 251 251 251 251 250 250
244 243 241 241 241 241 241 242 242 243 242 243 243 244 245 246 245 244 245 250 246 245 246 246 247 246 246 248 249 249 250 251 251 252 253 253 253 253 253 254 253 254 253 253 253 254 254 254 254 254 254 253 253 253 254 254 254 254 254 254 254 255 255 255 255 255 254 254 254 254 253 253 253 253 252 252 252 251 251 251 250 250 250 249 248 248 247
Wind_Speed
3 5 5 6 3 4 4 5 6 6 7 7 13 16 17 8 11 18 11 5 11 19 15 3 7 7 6 3 3 5 4 4 5 6 7 7 7 6 6 7 7 8 9 9 11 11 12 12 13 13 12 11 9 7 6 7 6 8 7 6 7 8 8 9 12 13 12 10 8 8 8 8 9 10 10 9 8 8 8 9 9 8 8 8 8 8 7
2 4 4 3 5 1 3 4 6 6 9 12 14 15 10 7 7 6 5 3 11 12 13 2 4 4 6 7 4 1 0 1 3 6 8 8 7 6 6 6 6 7 8 8 9 9 10 10 11 11 12 12 12 11 12 10 7 6 3 6 7 8 9 12 12 12 11 9 9 8 8 11 11 9 8 7 7 8 9 8 8 8 7 8 9 9 9
4 6 4 4 4 4 3 4 6 9 10 11 10 5 2 3 5 9 12 11 16 15 4 7 7 7 7 7 5 2 1 3 5 6 6 6 6 5 5 5 6 7 7 7 7 7 8 9 9 10 10 10 10 12 12 12 10 6 3 6 7 8 11 11 11 10 9 10 8 9 10 9 8 8 8 7 7 8 8 7 8 7 7 9 9 8 9
3 4 4 6 4 3 5 7 9 12 13 10 5 6 6 5 10 8 4 7 14 14 1 8 2 9 4 6 6 4 2 1 3 1 4 4 5 5 6 7 7 8 8 9 9 9 9 9 9 8 10 11 10 12 12 12 11 7 4 5 7 9 10 10 9 9 9 9 8 10 8 10 9 7 6 7 8 8 8 8 7 5 8 9 8 8 7
7 6 0 2 6 3 4 11 19 18 9 9 8 6 7 12 11 7 7 14 12 9 1 3 10 4 2 2 3 0 1 2 6 5 4 4 5 5 5 6 6 7 8 8 9 9 9 10 11 12 10 10 12 12 13 13 11 11 9 7 8 9 10 9 10 8 8 8 9 9 10 9 7 6 8 8 9 9 11 9 6 9 10 8 9 7 8
5 5 3 4 4 10 15 13 8 9 17 17 14 14 17 16 11 8 7 8 8 9 10 9 11 10 3 2 2 1 5 6 4 4 3 4 4 5 6 5 5 5 6 7 7 7 8 10 9 10 9 10 12 11 11 11 11 12 10 11 8 10 10 9 9 8 7 8 9 9 7 7 6 7 8 11 10 9 8 7 9 9 8 9 8 9 9
6 3 6 4 12 12 12 2 7 13 15 12 17 20 16 10 5 5 10 14 16 17 14 13 6 3 1 1 3 7 5 6 4 3 4 4 5 6 7 9 10 9 8 8 8 9 9 9 9 10 12 10 11 12 11 12 12 11 12 10 11 11 11 10 6 8 7 7 9 8 6 6 7 8 9 8 7 7 7 9 10 10 10 10 10 9 8
3 4 6 9 10 5 2 4 3 3 2 3 1 5 7 8 11 11 14 16 17 15 10 4 0 1 3 1 3 5 5 5 4 3 4 6 5 5 6 6 9 10 11 10 10 11 10 10 11 9 10 9 10 13 11 11 11 10 10 11 12 12 10 9 8 7 6 8 8 7 6 6 7 9 8 8 9 6 6 6 6 5 6 6 8 8 8
8 6 9 12 6 9 6 6 2 6 5 6 9 9 8 8 9 11 12 14 13 7 1 2 4 2 2 4 4 3 2 1 2 0 2 4 6 6 7 5 7 8 8 8 9 8 8 8 9 10 9 9 10 11 12 12 11 11 10 11 13 10 9 9 9 7 6 7 8 7 6 7 8 8 8 8 6 5 7 7 7 8 8 8 7 8 7
6 9 8 3 7 11 14 6 1 3 5 8 7 7 6 1 3 3 8 10 6 1 1 3 4 1 0 2 3 5 4 4 6 3 2 4 5 5 7 8 7 7 7 7 8 6 8 9 8 7 7 8 9 11 12 11 11 12 11 13 12 10 11 10 7 6 6 7 8 7 6 8 9 7 5 4 5 5 8 7 8 8 6 6 5 6 7
5 6 8 7 9 9 3 2 5 4 4 9 6 4 9 2 4 1 4 4 2 1 0 3 3 4 3 5 2 6 7 3 1 5 6 5 5 5 5 6 8 8 8 6 8 9 9 11 10 7 8 8 8 10 11 11 11 12 13 14 12 12 13 10 8 7 6 6 7 7 7 8 6 6 6 6 3 4 5 4 5 4 4 6 4 4 4
5 5 6 7 3 5 3 2 2 0 5 8 7 5 6 6 4 4 3 3 2 1 1 1 4 3 2 6 5 4 6 5 5 4 8 9 9 8 6 5 6 7 7 7 7 8 9 11 10 9 9 9 9 10 11 8 10 12 13 12 11 11 11 10 9 7 5 6 6 6 8 6 5 6 4 3 4 5 4 4 5 5 4 5 5 4 4
9 10 6 3 6 4 3 5 5 3 1 2 5 11 3 4 5 4 4 2 3 3 3 2 2 3 3 4 5 5 7 9 9 6 5 5 5 9 10 10 7 5 4 5 8 8 8 8 7 7 7 8 10 10 9 9 12 12 10 10 11 11 10 9 8 7 5 5 7 6 5 5 4 3 4 6 6 6 6 5 5 5 4 4 4 3 3
10 9 8 7 6 6 7 4 6 4 2 4 8 3 2 10 6 4 5 3 3 5 3 3 3 4 4 4 4 5 6 6 7 7 8 9 8 6 6 8 5 6 6 5 6 6 4 5 5 5 6 9 10 10 9 11 12 9 9 10 10 9 9 8 7 5 5 4 4 4 2 2 3 2 2 4 6 7 6 6 7 6 5 4 4 3 3
5 3 7 5 9 3 4 7 2 2 6 4 4 4 1 2 6 5 4 3 2 5 2 4 4 4 5 5 5 5 5 6 8 8 9 10 10 11 12 14 13 10 11 10 10 11 11 8 4 3 3 7 9 9 11 14 10 8 9 8 8 7 7 7 5 4 3 2 2 1 2 2 4 3 3 4 4 5 6 6 6 6 5 5 5 4 3
5 9 8 8 8 2 2 6 7 4 5 2 6 9 7 3 4 5 4 4 4 4 4 4 3 3 4 6 5 6 6 5 7 7 6 6 6 8 8 7 9 10 11 12 11 9 9 9 8 6 5 9 9 9 14 10 7 8 8 7 5 6 6 5 4 3 2 1 1 1 3 3 3 4 3 3 3 5 5 6 6 6 5 5 5 5 5
9 7 6 2 2 4 1 3 2 4 1 2 6 6 7 6 6 4 5 6 4 5 4 4 4 4 2 3 3 4 8 9 8 10 11 10 10 9 8 10 10 9 10 13 14 14 12 10 10 7 4 7 12 15 12 6 8 9 8 7 5 5 5 4 4 3 1 1 0 1 2 4 5 4 3 4 4 2 4 4 5 6 5 5 6 5 4
0 1 0 2 1 2 1 1 2 2 3 2 4 5 4 2 3 6 1 1 1 1 2 1 3 2 4 6 7 6 7 7 8 8 9 10 9 10 9 9 10 10 11 11 12 13 15 10 8 10 7 5 11 15 11 8 9 8 7 7 6 6 4 3 3 2 1 1 0 0 1 1 3 5 7 6 5 5 5 5 5 5 5 5 4 4 4
7 7 4 4 6 1 1 1 2 1 1 2 3 3 1 4 5 5 4 3 3 3 3 3 3 4 4 6 7 7 7 8 8 8 9 9 8 9 12 11 9 10 9 11 14 14 16 14 9 9 9 8 9 11 11 9 8 7 7 6 7 5 4 3 2 1 2 1 0 0 1 2 2 3 5 5 6 5 5 6 5 5 6 6 5 5 5
6 4 3 3 1 1 2 2 5 4 2 1 4 3 3 4 4 5 4 3 5 2 4 3 3 5 4 4 7 7 7 7 8 9 10 12 12 12 9 11 11 10 10 10 12 13 14 13 10 9 9 10 10 9 9 8 7 6 7 7 8 7 5 2 1 1 2 3 2 1 1 3 4 3 3 5 6 7 7 8 8 7 7 7 7 7 7
1 2 1 2 2 2 2 3 2 1 0 3 6 6 7 6 7 7 5 6 3 3 2 1 2 4 5 3 5 7 8 8 8 9 10 10 10 11 11 11 10 11 11 12 12 13 14 11 9 10 10 10 8 9 8 7 5 6 8 6 6 6 4 2 2 1 1 1 2 2 2 2 3 4 6 6 6 4 2 3 5 7 8 6 6 5 6
3 8 6 5 5 4 2 1 1 3 3 6 6 5 8 8 7 6 6 4 4 4 3 2 2 4 6 6 6 8 7 7 8 10 11 11 11 12 9 8 9 10 10 10 12 14 14 11 9 10 10 10 8 7 7 5 4 5 7 7 6 7 5 4 3 2 2 2 2 2 2 2 1 1 1 3 1 4 3 3 5 4 5 5 6 7 7
7 4 3 6 4 3 3 8 2 3 2 5 8 6 5 5 4 3 4 4 3 3 3 3 4 4 5 9 8 9 8 9 8 9 11 12 13 14 14 14 15 13 12 11 11 13 14 12 12 12 11 10 8 7 6 5 4 6 5 6 6 6 5 5 4 3 3 3 2 2 2 2 1 2 1 2 5 5 4 5 5 6 6 5 8 9 7
1 2 5 6 2 1 5 7 6 3 1 7 9 5 4 3 2 2 1 1 2 3 1 2 4 3 4 4 7 10 13 11 10 11 11 11 10 11 11 10 11 14 15 14 13 14 13 12 12 12 12 10 7 7 5 5 4 5 5 5 6 6 5 5 5 4 3 3 3 2 2 2 2 2 3 4 3 5 8 7 8 8 7 9 11 12 9
2 2 4 3 3 5 8 10 7 5 2 4 7 5 3 1 1 2 1 2 2 3 3 3 4 5 6 7 6 8 11 13 11 11 14 14 13 11 10 12 13 12 13 13 13 13 12 12 13 12 11 11 7 6 5 4 4 5 6 6 7 5 5 4 4 4 3 2 2 2 2 2 2 2 3 4 5 5 4 7 9 9 10 11 12 11 11
4 4 2 3 7 5 5 5 6 6 4 4 4 3 3 2 2 2 2 3 3 4 4 3 3 5 7 9 9 8 10 11 11 12 11 11 11 11 11 11 13 13 14 15 15 15 14 14 13 11 12 11 7 6 4 4 4 5 7 7 7 6 5 5 5 4 4 3 2 2 1 1 2 2 3 2 1 3 6 6 5 6 9 12 13 13 13
5 1 5 5 4 4 1 3 3 4 5 6 6 5 3 3 3 1 2 3 4 4 4 5 3 4 5 5 9 9 10 14 13 10 9 11 11 11 11 13 14 15 16 16 16 15 15 14 13 11 12 10 6 5 4 4 5 6 7 7 7 7 8 6 5 5 5 4 4 3 2 2 2 1 2 2 2 1 2 5 6 6 5 6 10 12 10
4 6 0 7 6 7 5 2 2 4 7 6 6 5 3 2 2 3 4 3 3 3 3 3 5 7 8 6 8 12 10 9 11 13 13 12 11 11 12 14 16 15 14 14 14 14 14 13 12 12 13 8 5 4 4 4 6 7 7 6 6 6 5 7 6 6 5 5 6 6 6 5 4 3 2 2 2 1 0 1 3 5 4 3 3 7 11
4 4 6 6 6 5 5 4 5 5 6 6 5 4 5 7 6 5 5 5 5 5 4 4 4 4 6 8 7 9 11 12 13 14 13 13 13 13 13 15 16 15 13 13 12 11 10 11 11 12 13 6 4 4 4 5 6 7 7 6 6 6 6 6 6 6 6 5 5 5 6 5 5 4 2 2 1 1 1 2 3 2 3 4 4 4 4
0 1 5 4 3 4 6 3 3 4 5 5 7 5 4 5 6 5 5 5 5 7 6 6 7 6 5 7 6 7 11 14 16 16 15 14 13 13 13 14 15 14 11 8 8 7 10 11 12 13 12 5 3 3 4 6 7 8 9 8 7 7 6 6 5 5 5 6 5 6 5 5 6 6 6 5 4 3 3 3 3 4 5 4 3 3 5
1 1 3 5 6 4 6 5 4 4 5 4 5 4 5 4 3 5 6 7 6 7 7 7 8 9 7 7 8 9 10 12 14 15 15 15 14 13 13 11 11 13 15 16 15 12 11 12 11 12 8 6 6 5 5 5 7 8 8 7 7 8 9 9 8 7 7 6 6 6 5 5 5 5 6 6 5 5 4 3 3 3 3 3 3 2 2
9 6 5 4 3 4 4 3 4 4 4 3 4 4 5 4 4 6 5 6 6 8 10 10 9 10 9 9 10 12 12 12 14 14 15 14 13 10 10 12 14 14 15 16 15 13 11 11 13 10 6 8 7 7 7 6 6 7 8 7 6 5 6 9 6 7 5 4 5 5 4 6 5 5 5 5 6 6 5 5 5 4 4 4 3 2 1
6 3 0 2 1 2 2 1 2 0 1 2 2 2 3 2 3 4 5 6 7 7 8 10 9 9 10 10 11 11 13 14 14 14 13 12 11 11 12 12 14 14 14 13 13 12 10 11 12 8 8 8 9 9 8 7 7 7 7 7 6 6 5 7 7 6 5 6 6 7 6 4 4 4 4 3 4 3 4 5 5 5 5 4 4 2 1
6 6 3 4 4 7 7 4 2 1 0 1 1 2 2 3 3 5 5 5 6 7 8 9 9 10 10 10 11 11 12 13 12 11 12 13 15 15 14 14 14 15 14 13 12 10 8 7 7 8 8 9 9 8 8 8 7 7 8 8 7 6 6 6 7 7 7 6 6 7 7 5 6 6 4 4 4 4 4 5 4 4 6 5 3 2 3
8 8 7 6 5 4 3 4 2 1 1 2 3 3 3 3 4 5 7 7 7 7 8 9 9 10 10 11 11 11 10 11 13 15 15 14 15 16 16 16 17 16 16 13 10 8 5 6 7 8 9 9 9 9 8 9 8 7 7 7 7 6 5 4 7 8 8 8 7 8 8 8 6 5 4 5 5 4 5 4 5 5 6 5 4 2 5
4 6 5 4 4 4 3 2 1 1 2 3 3 4 4 5 4 5 6 7 6 7 8 9 9 9 10 10 11 11 11 12 13 13 14 14 15 15 16 17 18 18 17 15 3 4 7 6 8 10 8 8 9 9 8 7 7 8 7 6 6 4 3 3 3 3 2 4 5 5 6 7 8 6 6 6 6 6 6 6 6 6 6 5 4 4 5
3 5 4 3 2 3 1 1 1 1 2 3 3 4 4 4 5 5 5 6 7 7 8 8 8 9 10 9 10 11 11 11 11 12 12 13 14 15 15 17 16 16 14 14 5 6 8 6 11 14 9 7 8 9 10 10 7 7 7 5 5 4 4 3 2 3 3 2 4 5 5 5 6 5 4 6 6 6 6 7 5 6 6 5 5 5 3
3 4 3 3 1 1 0 2 2 1 2 3 4 5 5 4 5 5 5 5 6 7 6 7 8 9 9 10 10 11 12 11 13 14 14 14 14 15 15 12 13 10 12 11 10 8 8 9 14 10 7 7 7 8 9 11 11 8 6 5 4 4 3 4 4 3 4 5 4 7 7 7 7 6 5 5 5 6 5 5 5 7 6 6 5 5 4
4 3 3 1 3 1 2 2 1 1 2 6 6 6 5 4 4 4 5 6 7 6 6 7 8 8 9 10 10 9 10 11 12 14 16 15 12 11 12 12 13 9 8 9 10 10 9 10 9 8 8 7 9 8 9 10 11 7 6 4 4 3 3 4 5 3 1 2 4 5 6 7 7 6 5 5 5 5 4 4 6 4 6 5 6 6 5
2 3 1 1 1 1 0 2 2 3 3 3 3 5 5 3 4 4 5 5 6 5 6 7 8 8 8 9 10 10 10 12 13 14 14 10 9 11 11 9 2 5 8 12 10 8 11 15 10 7 7 7 7 6 7 9 9 5 4 3 2 2 3 4 6 6 5 5 6 5 5 6 7 6 5 4 4 5 5 5 6 5 5 5 6 6 4
2 1 1 2 1 0 1 1 2 3 3 4 3 4 4 4 4 4 6 6 6 5 7 6 7 7 8 9 10 11 11 11 11 12 13 9 7 7 7 9 6 9 10 9 10 10 11 9 7 7 7 7 6 7 6 8 6 3 2 0 1 2 4 4 5 6 5 5 4 7 9 9 8 7 5 6 6 5 5 5 6 5 5 7 7 6 5
1 2 0 0 1 1 1 2 2 3 3 3 3 3 4 4 3 4 6 5 6 6 6 7 7 8 8 8 9 10 10 10 9 9 10 9 8 5 6 7 10 9 13 14 11 10 8 7 7 6 7 7 7 8 8 4 4 3 2 2 2 2 3 4 5 7 5 6 7 7 5 7 9 9 7 6 6 5 5 6 6 6 5 6 6 6 6
1 1 1 1 1 1 1 1 2 3 4 5 4 3 4 3 4 4 4 5 5 6 6 6 6 8 7 8 8 9 8 7 7 9 9 10 6 3 4 7 8 8 15 10 9 7 7 7 6 5 8 7 6 8 6 4 4 4 3 3 2 3 4 5 6 6 6 7 5 6 6 6 5 5 6 6 6 5 5 6 6 6 6 6 5 5 4
1 1 1 1 1 1 1 2 2 2 2 4 3 3 3 4 3 3 4 4 5 5 5 6 6 7 7 7 7 7 7 7 5 6 6 8 4 1 4 5 6 9 14 9 7 7 7 7 6 9 10 9 8 7 4 4 5 5 5 4 3 3 3 3 4 4 5 5 4 4 4 5 5 5 6 6 5 5 5 5 5 5 5 5 4 4 4
1 1 1 1 3 1 1 1 1 2 3 3 3 3 3 4 5 4 4 4 5 5 4 5 6 6 6 6 6 7 8 7 5 5 6 6 6 7 7 7 8 7 8 12 7 7 7 7 11 14 10 11 9 9 5 5 5 6 5 4 4 4 4 5 5 5 5 5 4 4 3 5 5 6 5 5 4 4 5 5 5 4 4 4 3 3 3
2 1 1 2 1 1 2 2 4 2 2 2 3 3 3 4 4 5 4 4 5 4 4 5 5 6 7 7 7 7 7 7 4 2 3 4 5 6 7 7 6 7 12 12 7 8 8 14 16 15 14 13 11 7 6 6 6 6 6 5 5 4 5 5 5 4 4 4 4 4 4 5 5 4 4 3 3 4 4 4 3 3 2 3 3 4 4
3 3 2 2 0 2 3 1 1 2 4 4 5 4 5 4 5 4 4 5 4 5 4 4 5 6 6 7 7 7 7 7 7 3 2 5 6 6 8 9 9 11 10 7 8 7 9 10 12 16 16 15 12 7 6 6 6 6 6 6 6 5 5 5 5 5 5 5 4 5 6 5 4 4 3 5 4 4 4 4 3 3 3 3 4 4 4
5 4 2 4 4 3 3 4 5 5 3 2 2 3 3 4 4 4 4 4 6 5 5 4 4 5 6 7 7 6 6 6 7 6 5 6 6 6 6 6 8 13 11 8 10 9 16 18 17 17 16 14 8 7 7 7 6 6 7 7 6 6 6 5 6 5 5 5 5 5 5 4 4 4 4 4 4 3 3 3 5 4 4 4 5 4 4
5 8 5 4 3 6 5 3 3 4 2 2 2 3 3 4 4 3 3 5 8 6 5 5 5 5 5 6 4 5 6 5 3 4 6 6 5 5 6 7 10 11 9 7 7 6 12 16 16 16 15 11 8 8 7 7 7 7 7 7 6 6 6 6 6 5 5 5 5 4 4 4 4 3 3 3 3 3 2 3 3 3 2 2 2 2 1
5 5 5 4 3 4 3 3 2 1 2 3 3 4 3 2 3 4 4 4 5 6 5 5 5 4 5 5 5 5 5 6 6 5 5 5 5 5 6 6 6 9 9 6 7 7 9 14 13 13 10 7 7 7 7 7 7 7 7 7 6 6 6 6 5 6 5 4 4 4 3 3 3 3 3 3 3 3 3 2 2 2 3 3 3 2 1
5 5 4 4 2 2 3 3 1 1 2 3 3 3 2 2 2 4 3 5 4 6 6 6 6 5 4 5 5 5 6 6 6 7 5 5 5 6 7 6 6 6 7 7 6 6 6 6 7 8 7 7 6 6 6 7 6 6 6 6 6 5 5 5 5 4 4 3 3 3 3 3 4 4 3 3 2 2 1 2 1 1 1 1 1 1 1
5 4 4 3 3 2 1 1 2 2 2 3 3 4 2 1 2 3 4 4 4 5 5 6 7 5 3 5 6 6 5 5 5 5 6 6 6 5 6 8 6 6 6 5 6 6 5 5 6 7 7 6 5 6 6 7 6 5 5 6 5 5 4 4 3 3 2 2 3 3 4 3 2 2 1 0 0 0 0 0 0 1 1 1 2 2 2
Wind_Direction
180 165 141 147 127 169 172 176 153 172 189 168 190 214 222 184 202 230 245 158 228 255 267 192 194 241 246 217 213 217 237 283 318 332 311 296 289 289 296 286 300 311 309 305 307 313 317 321 322 321 319 317 310 295 274 270 264 249 239 236 242 239 242 240 241 241 246 245 240 240 236 232 231 228 223 214 206 205 206 214 210 211 208 205 205 212 213
171 217 175 172 133 158 102 144 174 170 173 202 207 221 227 197 234 265 292 232 245 258 271 108 166 236 268 268 241 212 328 306 290 277 282 284 291 309 316 317 314 309 305 307 307 312 315 315 315 316 317 317 316 315 311 308 294 270 207 232 232 239 237 240 243 246 247 251 241 236 229 229 231 227 220 217 209 206 212 211 209 205 204 206 209 207 205
242 229 193 149 163 155 216 227 201 204 204 214 215 221 208 138 287 275 272 285 280 265 256 287 238 193 245 278 285 327 90 178 226 237 259 299 330 328 327 326 324 317 313 310 311 314 308 309 308 310 308 307 312 314 311 311 308 300 202 245 235 239 246 244 247 249 249 246 242 239 233 237 233 225 219 208 211 216 215 210 209 204 198 209 213 207 206
281 237 178 199 139 151 210 249 232 221 216 218 201 200 200 178 230 244 281 283 262 274 126 251 301 121 198 268 300 4 41 216 222 311 341 334 335 340 330 326 327 328 325 323 322 318 315 312 311 309 311 314 315 308 308 307 307 313 270 256 253 253 252 256 252 248 246 248 242 240 234 234 227 218 203 200 208 212 213 212 211 190 207 215 210 208 206
249 273 78 201 127 117 234 234 237 233 229 223 221 218 198 210 204 219 222 241 249 268 203 274 284 262 205 280 358 148 204 45 50 52 12 339 331 328 323 315 317 315 317 318 316 317 319 319 319 314 314 314 307 305 308 303 314 310 301 278 268 266 263 258 258 251 249 244 243 240 233 231 221 207 203 205 207 204 209 204 181 199 212 205 212 207 204
236 265 107 108 127 226 237 242 219 198 230 230 230 239 232 225 186 214 227 254 283 285 273 259 273 294 355 117 247 265 90 82 45 30 357 323 307 309 309 299 292 291 299 304 305 301 298 300 302 303 307 301 297 299 297 302 305 303 306 301 286 276 274 265 261 258 250 245 247 244 237 226 212 212 209 216 212 206 198 186 194 203 204 207 206 205 204
211 128 119 138 217 229 239 67 153 199 215 221 227 236 247 257 237 234 260 259 256 259 263 273 301 331 108 150 164 110 113 100 84 22 332 317 324 314 310 318 321 319 316 311 312 315 315 313 308 312 311 312 311 311 312 310 305 306 304 300 295 284 280 278 270 260 252 246 249 249 234 223 216 218 217 225 218 211 201 197 196 200 199 204 207 203 201
70 132 166 225 231 240 344 277 235 24 129 223 188 282 269 243 233 223 232 240 250 255 271 336 287 269 301 310 216 145 131 106 88 21 333 321 313 305 295 298 304 311 315 316 312 307 308 314 310 308 301 307 313 306 309 302 301 301 299 297 288 286 286 286 279 269 254 254 251 248 236 227 223 226 221 216 213 203 200 207 211 203 213 204 202 200 199
208 174 205 228 354 319 293 279 227 158 171 162 167 231 249 224 216 215 229 242 251 274 353 292 317 321 123 110 198 235 145 135 154 169 273 278 283 282 286 272 277 282 286 291 290 294 296 293 297 301 306 314 310 307 308 305 306 302 302 294 289 296 292 283 281 278 260 255 253 243 232 229 231 230 225 221 216 183 198 202 199 202 205 200 198 194 193
184 204 221 215 227 241 250 231 199 187 167 149 175 173 267 270 260 235 215 237 253 303 303 334 312 320 77 261 206 300 341 36 341 326 263 253 255 258 269 288 283 279 278 285 288 276 282 289 281 291 306 312 311 308 305 306 309 307 306 297 298 299 292 293 293 280 258 247 250 242 228 229 231 235 230 228 213 190 201 196 206 209 199 197 197 193 190
146 210 213 210 206 236 220 201 196 223 176 148 132 163 246 219 200 257 137 135 178 203 139 323 4 47 309 251 215 265 285 315 318 307 303 283 270 265 260 269 285 288 289 287 293 307 308 311 314 320 317 317 314 307 306 310 311 308 303 300 304 305 302 303 296 282 263 250 245 242 236 234 225 224 212 210 191 177 209 195 207 180 186 185 190 190 197
208 199 224 235 207 248 269 227 253 181 145 118 114 212 260 199 202 205 146 146 184 222 214 178 62 106 326 279 273 266 296 314 309 301 307 316 313 304 290 272 251 260 276 304 303 299 299 299 309 318 322 320 313 306 304 307 305 297 295 299 300 298 295 294 291 284 265 255 249 241 240 235 219 213 183 152 159 170 183 172 177 176 182 181 180 191 181
223 222 251 273 272 267 184 157 150 165 144 82 160 218 216 182 202 206 168 196 199 175 170 168 31 232 194 225 266 317 317 326 320 315 297 278 275 290 301 299 298 283 258 243 265 273 281 288 298 308 312 311 303 302 301 305 294 290 295 298 296 294 292 290 289 281 273 252 256 254 239 230 209 179 170 171 160 161 164 158 154 163 164 164 164 170 174
222 221 231 244 278 233 191 239 178 165 92 219 210 232 158 148 195 212 176 199 213 170 173 189 194 231 258 280 310 307 303 291 285 288 297 310 313 294 278 278 286 299 305 291 284 284 258 253 260 280 298 300 298 299 299 287 282 292 298 294 292 291 288 285 286 286 278 274 260 248 230 145 150 175 183 163 169 162 157 157 158 160 154 151 155 157 163
219 187 221 226 242 270 121 140 45 168 182 226 164 136 55 154 163 169 210 199 225 160 229 223 228 280 302 297 297 296 294 300 304 311 317 321 318 320 326 329 330 332 323 323 319 314 316 319 301 276 264 277 286 290 286 284 295 299 291 289 289 288 290 292 295 297 298 267 250 177 183 181 161 166 175 158 162 156 152 150 150 151 154 150 145 146 135
183 195 203 210 226 148 234 160 195 206 196 165 141 130 147 222 158 170 190 237 224 193 205 262 282 235 265 309 317 318 311 306 309 303 299 296 304 313 313 304 307 320 316 315 315 310 311 311 314 315 315 303 295 288 281 289 295 292 290 283 288 289 293 299 309 314 314 310 278 177 162 147 145 150 165 167 158 167 157 151 150 149 153 148 144 151 159
180 204 214 220 142 128 186 148 175 142 141 138 157 117 144 153 226 179 151 214 237 213 204 235 247 291 279 285 295 310 308 318 321 323 319 318 316 315 315 315 314 317 314 311 313 312 311 315 313 311 302 299 301 296 293 313 299 298 292 291 288 285 292 306 309 309 335 351 325 212 183 161 150 153 151 159 151 177 151 152 154 154 158 158 162 159 154
37 312 163 168 65 127 132 75 74 127 94 76 118 119 119 196 146 160 129 106 155 238 206 211 286 321 329 333 322 320 315 316 314 313 314 317 319 319 320 321 325 320 317 311 309 308 308 312 313 308 309 296 294 291 302 306 299 294 291 288 282 274 288 298 302 309 308 347 11 42 165 179 173 171 163 168 163 169 158 159 155 155 154 151 148 150 156
153 238 151 147 169 148 271 37 45 52 67 148 167 147 97 54 52 77 69 77 42 16 35 6 317 317 334 325 312 313 316 317 313 313 309 308 311 316 316 313 317 315 316 312 310 311 307 309 315 303 305 297 277 285 295 300 302 297 288 278 275 273 264 277 294 302 242 258 276 14 103 110 129 153 163 161 162 167 170 160 159 155 156 154 154 159 162
172 240 175 205 266 275 55 132 106 79 63 10 37 67 81 100 90 78 69 90 69 58 26 334 344 311 326 327 312 315 311 311 311 313 315 317 319 315 314 311 316 313 308 304 301 301 300 303 308 299 294 290 289 289 290 295 296 295 284 274 271 267 257 244 240 246 241 246 227 208 215 174 152 151 172 174 171 178 177 175 167 172 167 168 171 173 169
262 350 302 291 7 344 41 52 57 207 164 90 63 57 56 56 53 36 38 49 67 74 44 349 329 320 312 315 306 307 308 312 313 310 309 306 303 303 311 312 312 308 306 305 300 298 295 300 302 300 296 291 289 287 286 293 291 284 276 276 273 270 260 234 223 203 207 234 233 216 210 205 213 203 179 182 182 192 229 209 192 179 174 172 164 158 155
216 200 203 146 131 235 168 114 152 69 57 100 95 68 56 48 43 25 26 20 50 60 34 12 349 344 315 325 322 310 303 299 304 308 309 308 308 307 302 299 296 296 296 295 300 301 299 302 300 296 295 293 288 282 283 281 273 265 272 273 270 266 263 247 234 196 188 210 242 247 233 205 150 37 48 141 163 161 166 139 118 116 156 171 168 162 162
230 230 216 185 155 157 166 154 154 54 42 91 86 79 82 59 43 15 24 3 20 54 14 16 50 351 327 316 319 310 306 305 306 304 305 310 314 313 317 318 316 314 309 306 301 300 301 309 307 303 296 292 291 286 278 269 248 250 256 265 262 261 260 254 243 211 189 181 219 232 238 220 201 157 108 94 118 123 127 127 136 155 157 145 152 167 166
288 216 166 174 123 180 147 131 120 94 52 106 103 96 82 75 29 8 22 348 347 343 46 25 22 340 319 322 333 316 307 306 313 311 307 304 300 300 303 301 302 307 309 312 311 305 305 304 300 299 298 294 290 284 284 279 251 243 237 236 250 249 244 252 258 244 213 188 183 194 240 262 244 206 168 144 126 141 144 144 152 160 160 163 170 173 177
200 207 173 189 136 91 114 129 115 105 84 114 121 116 116 103 5 358 8 333 348 3 16 358 342 346 353 340 327 305 301 304 310 310 309 306 305 308 310 312 309 309 308 306 303 301 300 298 297 295 292 291 290 280 288 295 274 251 245 235 242 245 238 236 244 247 241 217 184 171 198 225 252 246 210 180 163 151 153 164 168 172 174 173 171 172 170
105 123 96 84 80 101 123 107 90 78 81 97 101 104 69 47 358 14 348 348 5 23 24 354 346 4 3 327 313 307 302 295 303 308 302 303 311 315 311 310 311 308 305 304 302 300 299 295 291 290 289 289 285 273 284 289 289 268 253 246 243 235 227 217 213 214 213 215 188 179 130 338 325 321 310 314 258 152 145 138 145 164 171 169 167 170 172
58 43 127 78 74 69 360 170 159 89 101 87 92 87 54 24 359 349 352 23 31 23 5 348 11 354 333 309 307 308 306 306 309 303 302 303 303 303 306 307 302 299 297 298 298 297 298 296 294 288 281 282 275 266 277 284 281 277 263 251 249 244 222 204 194 197 183 175 174 160 154 158 173 237 289 316 312 262 181 155 148 148 149 163 173 174 172
66 20 99 174 203 177 177 166 115 104 86 80 64 52 25 46 50 50 27 17 1 7 352 356 5 345 328 324 323 312 310 306 304 306 306 299 302 306 301 298 297 295 293 290 290 293 295 293 291 290 284 281 264 268 277 280 281 267 261 247 241 236 228 206 195 194 197 196 180 172 172 177 181 190 192 219 228 285 5 84 141 136 117 118 111 172 170
44 26 26 63 90 107 116 105 75 71 68 54 57 41 31 26 13 15 5 357 341 339 330 336 2 336 317 315 321 310 312 311 307 303 300 302 303 302 302 300 296 292 289 286 284 286 289 294 295 292 287 286 255 267 274 279 270 266 255 239 224 223 217 216 211 193 187 185 195 190 173 155 150 152 168 188 180 193 155 147 130 95 114 113 105 119 134
158 52 61 73 76 110 103 99 99 80 62 29 33 31 39 43 12 356 336 331 341 330 319 327 325 319 317 309 308 316 311 308 304 302 302 301 301 301 301 298 295 292 288 282 292 303 303 300 298 293 294 317 299 291 289 284 276 271 263 246 231 218 216 204 201 199 189 185 184 177 176 176 170 166 164 167 172 172 167 152 148 141 141 131 132 143 152
200 73 84 99 87 79 106 114 89 71 57 30 24 21 23 38 21 331 328 326 326 311 317 320 311 310 313 308 308 306 299 295 294 295 295 297 298 296 291 292 301 308 310 309 310 307 302 298 294 289 306 326 305 300 290 282 278 277 270 257 242 226 216 202 199 196 193 181 171 172 178 184 184 175 173 164 162 159 155 145 136 122 96 92 102 116 111
99 85 91 73 80 113 98 80 78 55 38 19 18 18 18 16 335 318 315 316 310 317 315 314 311 310 311 313 311 307 301 296 294 293 291 291 288 288 307 314 304 295 293 297 300 301 299 296 291 295 331 319 310 298 292 280 277 271 269 260 247 233 213 202 200 202 195 186 169 171 178 183 190 183 176 173 170 159 152 151 147 131 116 120 106 60 346
111 94 234 189 103 84 120 126 121 183 18 9 356 354 359 335 312 300 302 306 309 304 300 297 302 306 311 311 307 306 304 300 294 289 288 293 305 312 310 302 295 292 291 291 292 292 290 286 288 308 312 308 305 298 288 280 278 274 274 265 256 236 210 206 198 192 180 173 175 172 169 175 169 174 184 164 145 139 140 142 136 126 112 96 81 22 12
185 198 156 148 159 175 183 198 136 152 276 323 319 328 316 308 303 299 296 293 291 293 293 299 305 306 306 307 307 305 305 307 306 306 308 310 308 308 304 297 296 298 295 290 285 282 276 280 297 305 308 306 298 293 286 282 276 276 273 275 259 243 219 207 195 195 191 191 181 163 159 157 162 166 158 155 147 147 144 137 126 120 111 107 116 93 116
94 100 95 93 83 94 87 131 157 161 226 258 266 279 273 282 289 284 291 298 294 292 297 300 300 304 307 306 304 301 299 294 296 301 304 307 305 304 304 306 306 303 299 296 280 272 303 307 304 305 307 302 295 289 287 283 284 277 278 273 271 257 241 211 202 198 197 191 171 165 157 156 153 144 143 144 144 140 133 127 123 123 126 130 140 131 90
101 99 99 94 83 92 106 125 141 179 209 230 254 257 273 272 281 289 293 289 292 297 298 299 302 304 303 303 303 305 301 296 293 292 295 298 301 304 308 310 309 307 305 305 358 16 326 311 309 312 310 298 292 286 284 289 287 284 275 271 264 265 256 234 232 240 196 164 174 166 160 143 136 141 145 144 143 143 140 134 132 132 138 145 145 110 103
90 105 115 111 106 99 116 150 186 191 220 233 245 260 271 277 274 274 283 288 288 292 297 302 302 301 297 295 292 290 289 290 290 290 292 297 303 306 306 305 304 301 307 305 328 8 325 308 311 314 308 292 292 290 293 296 292 286 277 261 249 237 214 189 172 159 135 109 112 110 106 110 110 115 126 137 145 143 139 137 135 140 145 145 119 114 112
106 108 103 115 138 129 205 233 229 208 239 273 264 253 258 268 277 279 278 283 287 288 292 292 290 289 293 294 291 288 288 287 286 289 293 297 302 303 301 297 299 305 299 290 329 330 310 310 311 308 299 292 289 293 296 297 294 287 268 261 239 213 184 173 157 154 156 153 150 145 144 140 137 136 136 138 139 141 137 135 141 146 148 136 128 125 122
94 92 61 50 85 205 274 300 314 265 215 231 261 275 271 268 275 285 285 282 284 287 288 288 292 295 295 298 297 294 292 294 297 298 296 299 303 301 291 292 284 293 295 307 310 305 305 309 313 302 293 291 296 294 296 297 298 285 276 251 234 191 169 144 139 120 120 146 149 142 134 128 123 125 130 127 124 122 124 131 138 139 138 135 127 122 128
113 118 171 133 102 260 200 258 271 261 257 239 233 263 275 290 284 285 285 288 286 287 289 291 298 299 301 299 300 302 302 303 302 301 300 302 301 296 292 301 349 339 314 309 306 298 300 305 304 296 295 297 297 295 300 300 298 288 281 281 238 161 154 149 142 142 153 155 137 131 122 118 116 116 112 110 110 117 122 130 132 133 127 120 95 84 118
150 149 168 150 223 181 222 260 281 277 275 283 271 262 270 269 275 291 285 289 293 298 292 288 292 293 293 296 299 299 300 301 306 314 317 301 293 304 309 300 335 343 322 321 312 308 306 306 302 301 302 302 296 304 303 301 302 300 316 347 14 99 144 150 135 130 129 111 129 105 100 105 112 112 112 112 96 87 101 97 88 110 126 121 101 89 98
185 154 176 177 220 226 269 261 273 308 306 286 280 284 284 282 273 269 279 289 294 294 293 292 288 294 302 304 302 301 301 299 307 310 314 305 282 299 302 301 325 323 323 324 314 312 306 305 307 308 311 306 303 311 314 309 325 335 358 352 33 11 15 49 105 85 96 83 77 79 91 79 96 116 119 118 122 120 103 93 88 88 86 92 112 135 139
173 153 210 209 253 274 279 290 292 278 293 298 288 286 289 301 303 301 293 294 296 301 302 297 300 305 307 307 310 309 306 306 318 314 311 303 276 242 317 305 316 312 323 322 317 312 318 317 319 321 320 319 318 321 338 2 6 4 354 9 31 58 55 61 73 82 90 99 106 89 94 111 112 116 120 122 122 120 128 129 124 124 128 143 144 142 140
135 135 166 196 267 265 270 289 296 311 304 296 310 312 323 326 321 317 311 306 309 309 311 314 315 314 312 313 316 313 310 315 322 321 323 321 317 215 7 327 310 318 326 327 318 321 324 327 329 335 335 341 346 354 5 14 40 38 13 1 12 33 54 56 82 88 98 108 95 113 112 121 107 94 99 106 112 115 125 133 144 145 146 136 129 126 126
135 169 191 230 239 301 302 278 259 275 274 285 317 324 340 355 335 329 329 325 316 311 323 324 319 319 318 318 315 304 303 297 295 323 333 326 329 315 337 329 323 324 328 340 332 333 333 341 347 352 359 2 7 6 20 28 46 53 41 17 10 20 29 49 50 55 55 47 55 74 74 71 81 95 95 107 124 119 133 146 138 124 119 119 124 128 130
123 122 180 86 65 341 266 252 266 287 321 356 4 354 354 352 334 330 331 336 325 311 315 320 320 318 321 319 314 313 311 311 283 297 303 291 296 299 316 322 326 333 339 342 342 345 344 348 355 0 5 16 13 16 25 28 34 37 44 34 19 16 37 46 50 54 56 61 70 70 71 87 82 80 90 87 102 98 86 91 78 69 63 61 54 75 98
130 102 106 116 6 310 338 351 35 59 40 41 23 335 330 336 330 325 324 324 323 310 309 322 325 320 323 325 326 332 334 332 319 301 352 333 315 317 322 328 338 346 349 350 349 352 358 359 6 11 12 13 15 11 15 20 29 39 46 49 38 39 35 37 45 47 53 53 56 71 70 66 66 76 76 86 89 92 87 101 103 116 133 128 122 120 117
123 119 113 96 68 23 54 61 63 58 46 20 309 288 297 316 324 319 326 340 341 332 327 323 336 328 332 332 335 335 331 330 326 312 359 347 335 336 341 349 350 356 353 351 354 356 4 9 13 15 17 15 12 15 13 17 19 26 37 34 31 28 33 45 47 52 47 45 47 50 52 57 60 58 56 63 75 74 94 117 137 139 146 147 147 146 144
131 129 131 105 70 64 66 70 64 49 350 316 337 309 318 327 318 319 338 346 349 342 335 325 323 332 331 329 334 333 330 331 332 299 323 336 332 338 339 345 353 1 359 355 353 350 2 9 13 16 17 18 15 15 19 18 18 25 30 35 30 20 11 19 27 34 47 45 47 45 53 57 68 72 89 96 108 117 125 123 121 117 118 105 99 108 135
137 115 92 85 84 75 81 74 53 350 306 322 323 313 318 349 0 337 345 337 336 322 320 319 312 320 335 328 325 328 326 329 325 321 324 328 332 341 349 350 351 360 2 357 352 354 358 5 10 10 10 11 12 17 19 20 19 19 26 26 29 29 25 26 27 28 29 39 44 48 52 64 74 84 74 51 59 67 67 74 72 102 126 133 156 175 179
131 123 127 128 121 131 139 122 84 349 342 321 313 308 330 4 326 323 328 330 354 345 341 328 315 311 338 339 329 326 328 328 328 338 337 331 338 345 356 355 352 358 358 354 353 352 354 1 5 4 4 5 11 17 21 18 17 22 21 24 21 21 14 17 19 25 33 32 28 32 48 44 40 50 55 73 75 78 74 100 106 130 152 192 188 197 205
124 123 115 114 127 126 119 74 40 24 357 335 328 316 326 329 337 312 312 334 358 336 333 338 328 315 345 343 326 327 317 331 333 330 336 334 339 338 348 354 349 347 352 354 349 345 354 359 3 5 8 6 7 12 14 18 18 15 18 19 13 12 11 4 9 9 9 22 17 27 39 32 42 59 55 44 95 126 165 201 216 218 226 223 218 211 218